Location: *
(51.2742°N, 0.7277°W)
Time: 10:10:07
(UTC+00:00)

Daily predictions for brighter satellites

Satellite Brightness Start Highest point End
(mag) Time Altitude Azimuth Time Altitude Azimuth Time Altitude Azimuth
ATLAS 2AS CENTAUR R/B 4.0 18:54:57 10° NW 19:02:06 35° NNE 19:08:52 10° ENE
SJ-11-01 4.3 19:01:56 10° SSE 19:06:37 78° ENE 19:11:22 10° NNW
H-2A R/B 2.2 19:02:28 10° SSE 19:07:42 62° ENE 19:12:49 10° N
STARLINK-1111 3.7 19:03:46 10° WNW 19:07:55 74° N 19:12:04 10° E
Aureole 2 Rocket 4.4 19:05:49 10° NNE 19:07:56 15° NE 19:10:02 10° E
Cosmos 2360 Rocket 4.4 19:03:47 10° W 19:08:30 27° NW 19:13:15 10° NNE
STARLINK-1094 3.9 19:07:30 10° WNW 19:11:27 59° SSW 19:15:24 10° SE
Okean 1 Rocket 4.0 19:07:31 10° SSW 19:11:49 54° WNW 19:16:06 10° N
Cosmos 1745 Rocket 4.1 19:05:28 10° N 19:11:51 90° WNW 19:18:07 10° S
ERBS 2.3 19:08:42 10° WSW 19:12:05 88° SSE 19:15:29 10° ENE
STARLINK-1073 3.7 19:08:45 10° WNW 19:12:54 76° N 19:17:04 10° E
Cosmos 1544 Rocket 4.0 19:09:27 10° SSE 19:13:33 39° E 19:17:41 10° NNE
Cosmos 2297 3.7 19:07:53 10° NNW 19:13:34 72° ENE 19:19:15 10° SE
STARLINK-1200 4.5 19:11:21 10° SSW 19:14:54 30° SE 19:18:26 10° E
USA 234 3.9 19:09:35 10° ENE 19:15:24 33° SE 19:21:11 10° SSW
HJ-1C 4.0 19:12:21 10° S 19:15:39 61° W 19:19:00 10° NNW
NOSS 0 Rocket 4.0 19:09:38 10° SSW 19:15:52 89° WNW 19:22:06 10° NNE
STARLINK-1117 4.0 19:12:02 10° WNW 19:15:58 56° SSW 19:19:54 10° SE
Meteor 2-5 Rocket 4.0 19:11:33 10° NNW 19:17:16 76° W 19:22:50 10° S
STARLINK-1121 3.7 19:13:45 10° WNW 19:17:54 78° N 19:21:53 11° E
STARLINK-1192 4.4 19:15:54 10° SSW 19:19:30 31° SE 19:23:07 10° E
ADEOS Rocket 3.6 19:12:55 10° NNE 19:19:55 73° WNW 19:26:07 10° SSW
STARLINK-1078 4.1 19:16:31 10° WNW 19:20:27 53° SSW 19:24:22 10° SE
Cosmos 2237 Rocket 2.2 19:16:15 10° SSW 19:21:53 86° ESE 19:27:34 10° NNE
Cosmos 1805 3.3 19:18:09 10° S 19:22:05 86° W 19:26:01 10° N
STARLINK-1106 3.7 19:18:42 10° WNW 19:22:52 80° NNE 19:26:39 12° E
Cosmos 1302 Rocket 4.1 19:18:10 10° NNW 19:23:25 65° ENE 19:28:40 10° SE
STARLINK-1244 4.3 19:20:37 10° SSW 19:24:16 33° SE 19:27:56 10° E
STARLINK-1201 3.5 19:21:27 10° SW 19:24:33 40° SSE 19:27:30 11° E
STARLINK-1108 4.2 19:21:04 10° WNW 19:24:58 50° SSW 19:28:47 10° SE
Cosmos 2278 Rocket 3.9 19:20:28 10° NW 19:25:35 35° WSW 19:30:40 10° S
CZ-2C R/B 3.7 19:22:42 10° NE 19:26:44 22° E 19:30:44 10° SE
STARLINK-1112 3.6 19:23:42 10° WNW 19:27:53 82° NNE 19:31:27 14° ESE
STARLINK-1138 4.2 19:25:14 10° SSW 19:28:57 36° SE 19:32:32 11° E
Cosmos 1269 Rocket 4.2 19:24:16 10° S 19:29:23 52° ESE 19:34:32 10° NNE
STARLINK-1071 4.2 19:25:35 10° WNW 19:29:28 47° SSW 19:33:08 11° SE
STARLINK-1209 2.9 19:26:59 10° SW 19:29:49 52° SSE 19:32:14 13° E
STARLINK-1124 4.3 19:26:28 10° WNW 19:30:28 48° SSW 19:34:14 11° SE
STARLINK-1228 2.8 19:27:58 10° SW 19:30:47 52° SSE 19:33:08 14° E
Meteor 1-24 Rocket 3.9 19:27:01 10° NNW 19:32:37 75° W 19:37:59 10° S
STARLINK-1128 3.6 19:28:42 10° WNW 19:32:52 84° NNE 19:36:15 15° ESE
SeaSat 1 3.8 19:28:15 10° NNE 19:32:56 43° NW 19:37:34 10° WSW
Cosmos 1553 Rocket 4.4 19:27:11 10° SSW 19:33:12 66° WNW 19:39:18 10° N
STARLINK-1143 4.1 19:29:56 10° SW 19:33:42 38° SE 19:37:07 12° E
STARLINK-1110 4.3 19:30:07 10° WNW 19:33:58 45° SSW 19:37:29 12° SE
SL-8 R/B 3.8 19:29:22 10° WSW 19:34:05 63° S 19:38:02 15° E
CZ-4 R/B 4.4 19:33:15 10° SW 19:35:41 16° W 19:38:07 10° NW
ARGOS 3.2 19:30:23 10° SSE 19:35:48 87° ENE 19:41:15 10° NNW
STARLINK-1113 3.6 19:33:41 10° WNW 19:37:51 87° NNE 19:41:02 17° ESE
MOS 1 4.4 19:34:28 10° SSE 19:40:07 82° WSW 19:45:50 10° NNW
Cosmos 1470 3.0 19:38:39 10° SSE 19:42:20 45° E 19:46:05 10° NNE
STARLINK-1119 3.6 19:38:39 10° WNW 19:42:49 90° NNE 19:45:48 18° ESE
STARLINK-1241 3.9 19:40:16 10° SW 19:44:05 43° SSE 19:47:06 15° E
STARLINK-1233 3.0 19:41:10 10° SW 19:44:14 54° SSE 19:46:21 18° E
STARLINK-1212 3.0 19:41:37 10° SW 19:44:41 54° SSE 19:46:46 18° E
STARLINK-1105 3.0 19:42:04 10° SW 19:45:08 55° SSE 19:47:13 19° E
STARLINK-1206 3.0 19:42:33 10° SW 19:45:37 55° SSE 19:47:38 19° E
STARLINK-1247 3.0 19:43:00 10° SW 19:46:03 55° SSE 19:48:04 19° E
ISS -3.8 19:42:44 10° W 19:46:06 88° S 19:48:11 21° ESE
STARLINK-1227 3.0 19:43:24 10° SW 19:46:29 56° SSE 19:48:30 19° E
ATLAS CENTAUR R/B 4.0 19:43:37 10° WNW 19:46:32 17° NNW 19:49:22 10° NNE
Cosmos 2315 Rocket 4.0 19:40:27 10° S 19:46:41 66° E 19:52:59 10° NNE
SL-08 RB Rocket 3.6 19:42:23 10° SSE 19:46:55 82° ENE 19:51:31 10° NNW
STARLINK-1218 2.9 19:43:54 10° SW 19:46:57 56° SSE 19:48:55 20° E
STARLINK-1226 2.9 19:44:21 10° SW 19:47:25 56° SSE 19:49:23 20° E
STARLINK-1114 3.6 19:43:39 10° WNW 19:47:49 88° SSW 19:50:36 20° ESE
STARLINK-1254 2.9 19:44:44 10° SW 19:47:49 57° SSE 19:49:48 20° E
SJ-6B 3.0 19:43:56 10° SSE 19:48:01 81° WSW 19:52:10 10° NNW
STARLINK-1215 2.9 19:45:15 10° SW 19:48:19 57° SSE 19:50:13 20° E
MetOp-A 4.1 19:43:17 10° SSE 19:48:35 67° ENE 19:53:55 10° N
STARLINK-1239 3.9 19:44:48 10° SW 19:48:39 45° SSE 19:51:30 17° E
STARLINK-1231 2.9 19:45:41 10° SW 19:48:45 57° SSE 19:50:39 21° E
Resurs 1-3 3.7 19:44:43 11° SSE 19:48:49 56° ENE 19:53:08 10° N
STARLINK-1232 2.9 19:46:35 10° SW 19:49:39 58° SSE 19:51:31 21° E
STARLINK-1217 2.9 19:47:02 10° SW 19:50:07 59° SSE 19:51:58 21° E
Cosmos 1758 3.5 19:46:17 10° S 19:50:15 51° E 19:54:15 10° NNE
STARLINK-1208 2.9 19:47:27 10° SW 19:50:32 59° SSE 19:52:25 21° E
STARLINK-1229 2.9 19:47:56 10° SW 19:51:00 59° SSE 19:52:49 22° E
BREEZE-M DEB (TANK) 3.9 19:43:03 10° W 19:51:06 73° S 19:53:10 22° ESE
STARLINK-1271 2.9 19:48:23 10° SW 19:51:28 60° SSE 19:53:16 22° E
STARLINK-1270 2.9 19:48:50 10° SW 19:51:55 60° SSE 19:53:41 22° E
STARLINK-1154 2.9 19:49:16 10° WSW 19:52:21 60° SSE 19:54:07 22° E
STARLINK-1130 (DARKSAT) 3.6 19:48:37 10° WNW 19:52:47 85° SSW 19:55:22 22° ESE
STARLINK-1240 3.8 19:49:22 10° SW 19:53:14 48° SSE 19:55:56 18° E
STARLINK-1197 2.9 19:50:10 10° WSW 19:53:15 61° SSE 19:54:59 23° E
STARLINK-1189 2.8 19:50:37 10° WSW 19:53:42 62° SSE 19:55:25 23° E
Cosmos 2369 Rocket 2.5 19:48:19 10° NNW 19:53:56 52° NE 19:57:50 19° ESE
CZ-2C R/B 3.4 19:49:30 10° S 19:54:30 63° WSW 19:59:20 10° NNW
STARLINK-1187 2.8 19:51:26 10° WSW 19:54:33 67° SSE 19:56:21 23° E
STARLINK-1188 2.8 19:51:31 10° WSW 19:54:36 62° SSE 19:56:17 24° E
STARLINK-1198 2.8 19:51:45 10° WSW 19:54:50 62° SSE 19:56:31 24° E
STARLINK-1235 2.8 19:52:06 10° WSW 19:55:14 73° SSE 19:57:05 23° ENE
NOSS 2-1 (C) 4.5 19:52:41 10° WSW 19:55:58 40° NW 19:59:46 10° NE
Resurs 01 Rocket 1.9 19:53:04 17° SE 19:56:13 49° ENE 20:00:29 10° N
STARLINK-1199 2.8 19:53:26 10° WSW 19:56:33 64° SSE 19:58:12 25° E
FREGAT/IRIS 4.1 19:54:24 10° SSW 19:56:54 33° W 19:59:26 10° NNW
STARLINK-67 2.3 19:54:22 10° WSW 19:56:57 88° N 19:58:04 30° ENE
STARLINK-1191 2.8 19:53:54 10° WSW 19:57:01 65° SSE 19:58:39 25° E
STARLINK-1210 2.8 19:54:21 10° WSW 19:57:27 65° SSE 19:59:04 25° E
STARLINK-1084 3.6 19:53:36 10° WNW 19:57:45 81° SSW 20:00:09 24° ESE
STARLINK-1216 3.7 19:53:57 10° SW 19:57:51 51° SSE 20:00:23 20° E
STARLINK-1221 2.8 19:54:48 10° WSW 19:57:56 65° SSE 19:59:32 26° E
STARLINK-1219 2.8 19:55:15 10° WSW 19:58:22 66° SSE 19:59:57 26° E
STARLINK-1222 2.8 19:55:41 10° WSW 19:58:48 66° SSE 20:00:23 26° E
Cosmos 1733 4.1 19:55:16 10° SSW 19:58:56 51° WNW 20:02:39 10° N
STARLINK-1211 2.8 19:56:09 10° WSW 19:59:15 66° SSE 20:00:48 26° E
STARLINK-1214 2.8 19:56:36 10° WSW 19:59:43 67° SSE 20:01:15 27° E
STARLINK-1245 2.8 19:57:05 10° WSW 20:00:11 67° SSE 20:01:40 27° E
IRIDIUM 114 4.4 19:55:21 10° N 20:00:32 61° E 20:05:35 11° SSE
STARLINK-1238 2.8 19:57:31 10° WSW 20:00:37 68° SSE 20:02:07 27° E
Meteor 1-22 Rocket 4.5 19:55:55 10° SSW 20:01:11 67° WNW 20:06:29 10° N
STARLINK-1205 2.8 19:58:27 10° WSW 20:01:33 68° SSE 20:02:58 29° E
STARLINK-1204 2.8 19:58:53 10° WSW 20:01:58 69° SSE 20:03:23 29° E
STARLINK-1237 3.6 19:58:34 10° SW 20:02:30 54° SSE 20:04:52 22° E
Meteor 2-15 Rocket 4.4 19:56:44 10° S 20:02:41 62° E 20:08:41 10° NNE
STARLINK-1098 3.6 19:58:34 10° WNW 20:02:43 78° SSW 20:04:55 27° ESE
Cosmos 494 Rocket 4.4 19:58:27 10° SW 20:03:35 67° WNW 20:08:47 10° NNE
SL-14 R/B 4.4 20:00:46 10° NNW 20:04:41 47° W 20:08:33 10° SSW
SPOT 3 Rocket 3.6 20:01:33 10° SSE 20:06:47 82° WSW 20:12:02 10° NNW
Meteor 1-21 Rocket 4.1 20:01:14 10° N 20:06:50 71° ENE 20:11:31 15° SSE
Cosmos 1726 3.0 20:06:30 28° ESE 20:06:51 29° E 20:10:08 10° NNE
STARLINK-1202 3.6 20:03:09 10° SW 20:07:06 57° SSE 20:09:18 24° E
STARLINK-1123 3.6 20:03:34 10° WNW 20:07:43 75° SSW 20:09:44 29° ESE
Cosmos 1709 Rocket 4.4 20:03:17 10° NNW 20:09:26 63° W 20:15:29 10° S
IRIDIUM 103 4.3 20:04:29 10° N 20:09:44 72° E 20:14:44 11° S
Cosmos 2228 4.1 20:11:03 25° E 20:11:10 25° E 20:14:41 10° NNE
CZ-4C R/B 4.1 20:06:04 10° WNW 20:11:10 30° N 20:17:08 10° NE
MOS 1 Rocket 3.7 20:06:56 10° NNE 20:12:01 52° E 20:17:15 10° S
STARLINK-1246 3.5 20:08:13 10° SW 20:12:13 61° SSE 20:14:18 26° E
STARLINK-1097 3.6 20:08:32 10° WNW 20:12:40 71° SSW 20:14:29 32° SE
Meteor 2-15 4.4 20:08:04 10° S 20:14:08 88° E 20:20:13 10° N
Cosmos 292 Rocket 3.7 20:11:36 10° NNW 20:16:25 77° ENE 20:19:07 26° SSE
STARLINK-1099 3.7 20:13:31 10° WNW 20:17:39 68° SSW 20:19:17 35° SE
Cosmos 1943 Rocket 2.1 20:13:42 10° NNW 20:19:17 89° WSW 20:22:52 23° SSE
Cosmos 1943 4.1 20:19:28 26° ESE 20:19:28 26° ESE 20:24:04 10° NE
STARLINK-1224 3.5 20:17:02 10° WSW 20:21:03 67° SSE 20:22:45 32° E
NOSS 3-4 (A) 4.3 20:15:00 10° NW 20:21:29 48° NNE 20:25:57 22° E
NOSS 3-4 (C) 4.3 20:15:06 10° NW 20:21:34 48° NNE 20:26:02 22° E
Cosmos 2074 Rocket 4.0 20:15:41 10° N 20:21:58 73° ENE 20:26:45 18° SSE
STARLINK-1104 3.7 20:18:31 10° WNW 20:22:38 65° SSW 20:24:04 37° SE
STARLINK-1225 3.4 20:21:44 10° WSW 20:25:45 70° SSE 20:27:17 36° E
Cosmos 1328 4.2 20:22:18 10° N 20:26:09 42° ENE 20:26:45 39° E
STARLINK-1203 3.3 20:23:23 10° WSW 20:27:20 74° SSE 20:28:44 38° E
STARLINK-1144 3.8 20:23:29 10° WNW 20:27:35 61° SSW 20:28:50 40° SE
IRIDIUM 106 4.4 20:22:47 10° N 20:28:02 83° W 20:32:57 12° S
Cosmos 1437 2.7 20:25:39 10° N 20:28:32 56° ENE 20:28:32 56° ENE
Cosmos 1626 4.4 20:26:27 10° NW 20:29:31 25° W 20:32:35 10° SW
STARLINK-1234 2.8 20:26:39 10° W 20:29:39 78° NNW 20:29:59 66° NE
STARLINK-1230 3.4 20:26:21 10° WSW 20:30:23 73° SSE 20:31:44 39° E
Cosmos 1953 2.1 20:29:29 20° S 20:32:08 79° E 20:36:08 10° NNE
STARLINK-1103 3.8 20:28:28 10° WNW 20:32:32 58° SSW 20:33:37 42° SSE
Meteor 2-10 4.1 20:28:33 15° S 20:32:52 60° E 20:38:21 10° NNE
NOSS 3-3 (A) 4.3 20:28:00 10° S 20:33:20 37° ESE 20:39:16 10° NE
NOSS 3-3 (C) 4.4 20:28:07 10° S 20:33:26 37° ESE 20:39:22 10° NE
Cosmos 2084 Rocket 3.7 20:29:13 10° NW 20:33:40 69° SW 20:35:19 37° SSE
SPOT 1/Viking Rocket 4.1 20:32:06 33° ESE 20:33:44 43° ENE 20:38:40 10° N
STARLINK-1243 3.4 20:31:03 10° WSW 20:35:05 77° SSE 20:36:16 44° E
Spot 2 Rocket 3.5 20:33:07 34° SE 20:35:16 63° ENE 20:40:21 10° N
SL-16 R/B 2.5 20:30:01 10° SW 20:35:40 71° WNW 20:41:22 10° NNE
STARLINK-1101 3.9 20:33:28 10° WNW 20:37:32 55° SSW 20:38:25 44° SSE
STARLINK-1236 3.4 20:35:43 10° WSW 20:39:45 80° SSE 20:40:45 49° E
Aureole 2 Rocket 2.6 20:38:39 10° NNW 20:42:09 66° WSW 20:42:44 54° SSW
STARLINK-1102 4.0 20:38:27 10° WNW 20:42:29 52° SSW 20:43:11 45° S
IGS 5A 3.7 20:42:14 45° E 20:42:37 47° ENE 20:46:38 10° N
Aureole 3 3.9 20:38:42 10° SSW 20:42:46 72° WNW 20:48:02 10° N
DMSP B5D2-2 4.1 20:40:01 10° NNE 20:45:15 79° WNW 20:50:28 10° SSW
STARLINK-1111 4.0 20:43:25 10° WNW 20:47:26 49° SSW 20:47:58 45° S
H-2A R/B 4.3 20:43:21 10° SW 20:47:31 23° W 20:51:38 10° NW
ERBS 3.8 20:45:36 10° WNW 20:48:42 33° N 20:49:56 25° NNE
STARLINK-1269 3.4 20:45:07 10° WSW 20:49:10 86° SSE 20:49:49 62° E
Terra 2.9 20:49:37 29° ENE 20:49:54 29° ENE 20:54:00 10° N
CARTOSAT-1 4.3 20:50:52 36° ENE 20:50:52 36° ENE 20:54:49 10° N
Cosmos 2341 Rocket 4.4 20:45:57 10° N 20:52:05 48° ENE 20:53:51 39° ESE
STARLINK-1073 4.1 20:48:25 10° WNW 20:52:24 46° SSW 20:52:45 45° SSW
Cosmos 1703 3.1 20:48:52 10° N 20:52:50 82° E 20:53:09 73° SE
STARLINK-1200 3.4 20:49:49 10° WSW 20:53:53 89° SSE 20:54:21 69° ENE
ATLAS 2AS CENTAUR R/B 3.0 20:46:45 10° NW 20:54:30 66° NE 20:57:42 36° ESE
Cosmos 1726 Rocket 3.6 20:55:09 57° E 20:55:09 57° E 20:59:26 10° NNE
Cosmos 1825 Rocket 3.7 20:51:56 10° NNW 20:56:22 70° W 20:57:49 41° SSW
Cosmos 1603 3.6 20:53:25 20° S 20:57:19 58° ESE 21:02:50 10° NE
STARLINK-1121 4.2 20:53:25 10° WNW 20:57:22 43° SSW 20:57:32 43° SSW
Meteor 1-16 Rocket 4.0 20:54:16 25° S 20:57:31 81° E 21:03:01 10° NNE
STARLINK-1192 3.4 20:54:29 10° WSW 20:58:32 89° NNW 20:58:49 77° ENE
USA 234 3.1 20:52:24 10° ENE 20:58:59 85° SSE 21:05:33 10° WSW
Cosmos 2327 Rocket 4.5 20:53:52 10° N 21:00:09 87° W 21:03:23 31° S
STARLINK-1201 3.7 20:57:27 10° W 21:00:05 52° WNW 21:00:05 52° WNW
STARLINK-1106 4.3 20:58:24 10° WNW 21:02:18 41° SSW 21:02:18 41° SSW
STARLINK-1244 3.4 20:59:16 10° WSW 21:03:20 86° NNW 21:03:26 84° NE
MetOp-B 4.3 21:01:14 34° S 21:03:37 72° WSW 21:09:00 10° NNW
Cosmos 1758 Rocket 4.3 21:01:22 10° NNW 21:05:36 48° W 21:07:20 30° SSW
Cosmos 2237 Rocket 4.4 21:02:06 10° W 21:06:41 25° NW 21:11:18 10° NNE
STARLINK-1112 4.5 21:03:25 10° WNW 21:07:06 38° SW 21:07:06 38° SW
CZ-2C R/B 3.0 21:02:20 10° N 21:07:29 62° WNW 21:12:34 10° SSW
STARLINK-1138 3.5 21:03:59 10° WSW 21:07:58 83° NW 21:07:58 83° NW
COSMOS 2455 3.6 21:03:44 10° NNW 21:09:29 42° NE 21:11:09 35° ENE
Meteor 1-11 4.2 21:04:31 10° NNW 21:10:23 88° E 21:12:06 48° SSE
Cosmos 1953 Rocket 3.7 21:07:34 10° NNW 21:12:01 71° W 21:12:43 58° SSW
STARLINK-1143 3.6 21:08:46 10° WSW 21:12:34 75° WNW 21:12:34 75° WNW
Iridium 4 Rocket 4.4 21:08:54 10° NNE 21:11:52 28° NE 21:11:52 28° NE
Cosmos 1295 Rocket 4.4 21:08:29 10° N 21:14:47 85° E 21:16:48 46° SSE
Cosmos 1461 4.0 21:10:45 10° NNW 21:14:54 37° NE 21:15:09 37° NE
SL-8 R/B 4.1 21:11:44 10° W 21:16:00 47° SSW 21:16:00 47° SSW
Cosmos 2251 Rocket 3.7 21:12:56 10° SSW 21:18:18 73° WNW 21:23:42 10° NNE
Cosmos 2218 Rocket 4.2 21:14:51 10° N 21:20:48 48° ENE 21:21:25 46° E
Cosmos 1606 Rocket 3.8 21:20:19 52° SW 21:21:12 67° WNW 21:25:39 10° N
Cosmos 1656 Rocket 3.6 21:15:50 10° NNW 21:21:34 80° WSW 21:22:37 60° S
ISS -1.6 21:19:39 10° W 21:21:09 21° WSW 21:21:09 21° WSW
STARLINK-1241 4.0 21:19:07 10° W 21:22:24 57° W 21:22:24 57° W
ATLAS CENTAUR R/B 4.1 21:25:03 10° NNW 21:27:01 13° N 21:28:56 10° NNE
STARLINK-1239 4.2 21:23:43 10° W 21:26:49 51° W 21:26:49 51° W
ERS-1 Rocket 2.8 21:28:47 79° SSE 21:29:07 90° W 21:34:11 10° NNW
STARLINK-1240 4.4 21:28:20 10° W 21:31:15 45° W 21:31:15 45° W
Resurs 01 Rocket 3.7 21:30:38 15° SW 21:32:57 23° W 21:36:27 10° NW
Cosmos 2181 Rocket 4.1 21:33:10 53° E 21:33:10 53° E 21:39:10 10° NNE
Cosmos 2154 Rocket 4.4 21:27:23 10° NNW 21:33:38 59° W 21:36:21 34° SSW
SPOT 5 2.8 21:35:18 68° N 21:35:18 68° N 21:39:10 10° NNW
Cosmos 1908 4.2 21:37:51 45° NNW 21:37:51 45° NNW 21:40:54 10° N
Cosmos 2369 Rocket 3.5 21:32:42 10° NW 21:37:45 33° WSW 21:39:39 27° SW
Cosmos 1726 4.2 21:40:56 22° W 21:42:04 26° WNW 21:45:16 10° NNW
Cosmos 921 Rocket 3.8 21:43:07 10° NNW 21:46:09 46° NNW 21:46:09 46° NNW
Cosmos 967 Rocket 4.4 21:41:11 10° SW 21:47:39 89° NW 21:54:12 10° NE
Cosmos 2228 4.2 21:47:50 36° W 21:48:32 38° WNW 21:52:36 10° N
SL-8 Rocket 3.9 21:49:40 10° N 21:56:01 88° WSW 21:56:35 75° S
Cosmos 1340 Rocket 4.3 21:57:44 34° N 21:57:44 34° N 22:00:10 10° N
Cosmos 2058 4.5 21:56:09 10° N 21:58:26 31° N 21:58:26 31° N
Cosmos 2058 Rocket 3.9 22:01:24 49° NW 22:01:24 49° NW 22:05:21 10° N
CZ-4C R/B 4.1 21:55:53 10° NW 22:01:34 32° NNE 22:06:33 16° ENE
Cosmos 1943 Rocket 4.3 21:58:49 10° WNW 22:02:14 17° W 22:04:24 14° SW
Cosmos 864 Rocket 4.3 21:56:32 10° N 22:02:51 82° E 22:02:57 82° E
Cosmos 1943 3.5 22:01:06 40° WSW 22:03:06 65° NW 22:08:46 10° NNE
Cosmos 2366 rocket 3.8 21:57:02 10° N 22:03:14 85° E 22:03:18 85° ESE
Cosmos 1763 Rocket 4.5 22:02:57 10° NNW 22:07:11 38° NE 22:07:11 38° NE
Mayak 1.0 22:05:48 10° NNE 22:06:55 17° NNE 22:06:55 17° NNE
NOSS 3-4 (A) 3.8 22:05:56 10° NW 22:12:46 65° SW 22:13:24 63° SSW
NOSS 3-4 (C) 3.8 22:06:01 10° NW 22:12:53 66° SW 22:13:29 63° SSW
NOSS 3-3 (A) 4.4 22:17:53 10° WSW 22:23:54 63° NW 22:30:47 10° NE
NOSS 3-3 (C) 4.4 22:17:59 10° WSW 22:24:00 63° NW 22:30:53 10° NE
Cosmos 1697 Rocket 3.9 22:20:58 10° NNW 22:26:02 32° NE 22:26:03 32° NE
SL-08 R/B 4.4 22:20:36 10° N 22:26:15 77° N 22:26:15 77° N
Terra 3.0 22:28:29 39° WNW 22:28:29 39° WNW 22:32:04 10° NNW
Cosmos 1140 Rocket 4.5 22:36:42 41° NNE 22:36:42 41° NNE 22:40:06 10° NNE
USA 234 3.7 22:35:28 10° ENE 22:41:51 58° N 22:48:15 10° W
Cosmos 407 Rocket 4.4 22:44:53 45° NNW 22:44:53 45° NNW 22:49:01 10° NNE
ATLAS 2AS CENTAUR R/B 3.5 22:38:13 10° NW 22:45:08 42° WSW 22:45:08 42° WSW
Cosmos 1821 Rocket 4.2 22:41:20 10° N 22:46:52 68° NNE 22:46:52 68° NNE
Cosmos 1980 Rocket 3.6 22:46:04 10° NNW 22:50:55 29° NE 22:50:55 29° NE
COSMOS 2455 3.6 22:49:45 10° NW 22:54:18 45° WNW 22:54:18 45° WNW
ATLAS CENTAUR R/B 4.0 23:04:01 10° NNW 23:05:26 17° N 23:05:26 17° N
Cosmos 1934 Rocket 4.4 23:02:48 10° N 23:08:00 58° NNE 23:08:00 58° NNE
ATLAS 5 CENTAUR R/B 4.1 23:39:11 18° NE 23:39:11 18° NE 23:40:33 10° NE
Cosmos 1833 Rocket 4.4 23:45:09 24° NE 23:45:09 24° NE 23:47:31 10° NE
Mayak 1.4 23:41:58 10° NNW 23:43:29 17° NNW 23:43:29 17° NNW
CZ-4C R/B 3.1 23:44:35 10° NW 23:51:22 63° NE 23:51:42 62° NE
